User: anonymous   Login
Location: Oshawa
(43.9000°N, 78.8670°W)
Time: 12:08:10
(UTC-05:00)
Language:

S-56A Canister/Altair - Orbit

View from above orbital plane
View from above orbital plane
View from above satellite
View from above satellite

Ground track
Ground track

The orbit data is extracted from the following two-line orbital elements,

1    82U 61004B   17015.81575647 +.00000027 +00000-0 +55902-4 0  9992
2    82 038.8533 140.9152 1167644 178.4777 181.9944 12.25806366654565
Epoch (UTC): 15 January 2017 19:34:41
Eccentricity: 0.1167644
inclination: 38.8533°
perigee height: 639 km
apogee height: 2495 km
right ascension of ascending node: 140.9152°
argument of perigee: 178.4777°
revolutions per day: 12.25806366
mean anomaly at epoch: 181.9944°
orbit number at epoch: 65456

The dashed part of the orbit path shows where the satellite is in the earth's shadow,  

DLR